Location: Ferchesar
(52.6477°N, 12.4298°E)
Time: 00:42:28
(UTC+01:00)

Transit 4A - Pass Details

Date: 07 December 2021
Orbit: 864 x 981 km, 66.8° (Epoch: 19 January)

Event Time Altitude Azimuth Distance (km) Brightness Sun altitude
Rises 19:49:23 0° 229° (SW) 3,472 11.4 -34.0°
Reaches altitude 10° 19:51:51 10° 233° (SW) 2,550 10.6 -34.4°
Enters shadow 19:55:57 44° 253° (WSW) 1,223 8.7 -35.0°
